Probability
0 0 0 0 0 0 0 0 0 0 6 10 19 23 39 48 65 74 77 84 94 90 90 90 90 87 87 84 87 87 84 87 81 71 65 65 68 68 61 52 48 52 45 39
0 0 0 0 0 0 0 0 0 3 10 19 26 29 39 45 58 65 84 90 94 90 94 94 90 84 84 81 84 77 74 74 65 68 58 61 61 52 45 35 39 42 39 35
0 0 0 0 0 0 0 0 0 3 13 26 19 39 42 55 68 74 87 90 94 90 90 90 84 87 87 77 77 77 71 58 58 61 58 55 48 42 32 32 32 39 35 32
0 0 0 0 0 0 0 0 3 10 16 19 29 48 48 52 65 77 90 90 94 87 90 87 84 87 81 77 68 61 55 55 52 52 52 45 42 35 39 35 32 32 26 23
3 0 0 0 0 0 0 0 10 10 13 19 26 35 45 52 74 87 87 87 90 87 87 87 81 84 84 58 58 55 52 48 45 45 39 35 35 32 32 29 23 23 23 26
3 0 0 0 0 0 3 13 13 19 19 23 29 29 52 74 84 84 87 90 87 84 81 77 77 81 61 52 48 48 42 39 35 32 32 26 32 26 23 23 23 23 19 19
3 0 0 3 0 0 3 29 35 32 26 39 52 58 81 77 87 87 90 87 87 81 77 77 74 61 55 52 45 39 29 29 35 29 26 26 26 23 23 23 19 16 16 16
3 3 6 10 3 16 58 71 65 45 42 48 58 65 77 81 84 84 81 84 81 77 77 71 61 55 55 48 45 42 35 32 26 23 23 19 19 19 19 16 16 16 13 10
13 19 45 52 65 71 65 61 55 48 45 52 55 65 74 81 81 81 81 84 84 71 65 61 58 55 48 42 42 32 29 32 26 23 23 19 19 16 16 19 13 10 6 10
39 29 42 45 58 55 58 52 42 39 52 52 52 68 74 81 77 84 81 71 65 55 48 45 48 45 42 39 39 26 23 26 26 13 13 16 16 13 16 13 10 13 6 6
35 45 45 42 42 42 48 48 42 45 45 48 52 68 74 77 71 68 65 58 58 52 42 35 39 29 29 29 32 23 16 16 13 13 13 13 6 6 6 6 3 3 10 3
35 52 52 45 42 45 52 48 52 52 48 55 52 65 68 58 58 58 58 55 55 39 35 39 32 23 23 23 19 16 16 16 10 6 13 3 3 3 0 0 0 0 0 0
42 42 42 42 45 45 45 42 45 48 48 48 48 48 52 48 52 55 52 52 42 35 32 23 16 19 13 13 13 16 16 16 13 10 10 6 3 0 3 0 0 0 0 0
42 42 35 39 39 35 39 39 39 32 32 29 29 35 39 39 45 42 42 42 42 26 26 19 16 10 10 10 13 13 13 10 10 10 13 6 0 0 0 3 3 0 0 0
35 35 35 35 32 29 32 29 26 16 19 26 29 32 32 39 39 39 42 35 32 26 23 16 13 13 13 10 10 10 10 6 6 10 10 6 6 3 0 0 3 3 0 0
32 35 32 23 26 26 29 26 19 13 13 26 26 29 29 32 29 29 32 26 26 23 19 16 13 13 13 10 10 10 6 3 6 10 6 0 0 0 0 0 0 0 0 0
23 26 19 16 19 23 13 10 13 16 13 13 19 23 26 26 23 26 26 26 23 19 16 13 10 6 10 10 10 0 0 0 0 0 0 0 0 0 0 0 0 0 0 0
23 13 19 13 16 6 3 3 10 10 10 13 16 19 23 23 23 26 26 26 19 16 13 13 3 3 3 3 0 0 0 0 0 0 0 0 0 0 0 0 0 0 0 0
23 19 19 13 6 6 6 6 10 10 10 13 10 16 23 23 16 26 26 23 10 10 10 10 0 3 0 0 0 0 0 0 0 0 0 0 0 0 0 0 0 0 0 0
13 10 10 6 0 0 0 3 3 3 10 6 6 10 13 10 13 13 6 13 10 10 10 0 0 3 0 0 0 0 0 0 0 0 0 0 0 0 0 0 0 0 0 0
6 6 6 3 3 0 3 3 6 3 10 6 6 10 13 10 6 6 6 6 10 10 3 0 0 0 0 0 0 0 0 0 0 0 0 0 0 0 0 0 0 0 0 0
6 3 3 3 3 0 3 3 3 3 6 6 6 13 10 10 6 6 6 3 6 0 0 0 0 0 0 0 0 0 0 0 0 0 0 0 0 0 0 0 0 0 0 0
3 3 3 3 3 3 3 3 3 3 3 3 3 6 6 13 3 3 3 3 3 0 0 0 0 0 0 0 0 0 0 0 0 0 0 0 0 0 0 0 0 0 0 0
6 6 3 0 0 3 3 0 3 6 0 0 0 3 6 6 3 3 3 0 0 0 0 0 0 0 0 0 0 0 0 0 0 0 0 0 0 0 0 0 0 0 0 0
6 6 3 3 3 3 3 6 3 0 3 3 0 3 3 3 3 3 3 3 0 0 0 0 0 0 0 0 0 0 0 0 0 0 0 0 0 0 0 0 0 0 0 0
13 6 3 6 0 3 3 6 3 0 0 3 3 3 0 3 3 3 3 0 0 0 0 0 0 0 0 0 0 0 0 0 0 0 0 0 0 0 0 0 0 0 0 0
6 3 10 3 3 6 3 6 0 3 3 3 3 0 0 3 3 3 0 0 0 0 0 0 0 0 0 0 0 0 0 0 0 0 0 0 0 0 0 0 0 0 0 0
Height
5840 5845 5849 5852 5856 5861 5865 5870 5876 5880 5881 5880 5880 5880 5881 5882 5883 5883 5884 5886 5887 5887 5888 5888 5888 5888 5888 5887 5887 5886 5886 5885 5884 5883 5882 5881 5881 5880 5879 5879 5878 5877 5876 5876
5834 5839 5844 5848 5852 5857 5861 5866 5871 5873 5874 5875 5875 5875 5876 5877 5879 5880 5880 5882 5882 5883 5883 5884 5884 5884 5884 5883 5883 5882 5881 5881 5880 5880 5879 5878 5878 5877 5876 5875 5875 5874 5873 5872
5829 5835 5839 5843 5847 5852 5857 5861 5865 5867 5870 5870 5871 5871 5872 5873 5875 5876 5876 5877 5878 5879 5879 5880 5880 5880 5880 5879 5878 5878 5877 5877 5877 5877 5876 5875 5875 5874 5872 5872 5871 5870 5869 5868
5824 5829 5833 5840 5843 5847 5851 5855 5858 5861 5863 5864 5866 5867 5867 5869 5870 5871 5872 5874 5875 5875 5875 5876 5876 5876 5876 5874 5873 5874 5873 5873 5873 5872 5872 5871 5871 5870 5869 5868 5867 5867 5866 5865
5819 5824 5829 5834 5838 5842 5845 5848 5851 5854 5857 5859 5860 5862 5863 5865 5866 5867 5868 5869 5870 5871 5872 5872 5873 5873 5873 5872 5871 5871 5870 5869 5869 5869 5868 5868 5867 5867 5866 5865 5864 5862 5861 5861
5813 5819 5824 5829 5833 5836 5840 5842 5845 5848 5850 5853 5856 5858 5859 5859 5861 5863 5864 5865 5866 5867 5868 5869 5869 5869 5869 5869 5868 5868 5867 5867 5866 5865 5865 5864 5864 5863 5862 5861 5860 5858 5858 5857
5808 5813 5817 5822 5826 5830 5835 5837 5839 5842 5844 5847 5851 5853 5854 5855 5856 5858 5860 5862 5863 5863 5864 5865 5865 5866 5866 5866 5865 5865 5864 5863 5863 5862 5861 5861 5860 5859 5858 5857 5856 5855 5854 5853
5803 5808 5814 5814 5819 5823 5827 5830 5834 5837 5840 5843 5846 5848 5850 5852 5853 5854 5856 5858 5859 5859 5860 5861 5862 5862 5862 5862 5862 5861 5861 5860 5859 5859 5858 5857 5856 5855 5854 5853 5852 5851 5849 5848
5798 5803 5805 5807 5811 5816 5821 5825 5828 5831 5834 5837 5841 5843 5845 5847 5849 5850 5852 5853 5855 5855 5856 5857 5857 5857 5858 5858 5858 5858 5857 5856 5855 5855 5854 5853 5852 5851 5850 5849 5848 5847 5845 5844
5790 5795 5798 5802 5806 5811 5815 5820 5823 5826 5829 5833 5835 5837 5840 5842 5844 5846 5847 5849 5850 5851 5852 5852 5853 5853 5853 5854 5854 5854 5853 5852 5852 5851 5850 5849 5848 5847 5846 5845 5843 5842 5840 5838
5785 5790 5793 5797 5801 5805 5810 5814 5818 5819 5823 5827 5830 5832 5835 5837 5839 5841 5842 5844 5845 5846 5847 5848 5849 5849 5849 5849 5849 5848 5848 5848 5847 5846 5845 5845 5844 5843 5841 5840 5838 5837 5835 5833
5778 5783 5788 5792 5796 5801 5805 5809 5812 5814 5817 5821 5824 5827 5829 5831 5833 5835 5837 5838 5840 5841 5842 5843 5843 5844 5844 5844 5843 5843 5843 5843 5842 5841 5841 5840 5839 5838 5836 5835 5833 5831 5829 5827
5773 5779 5784 5788 5792 5795 5799 5803 5806 5809 5813 5816 5818 5821 5823 5826 5828 5830 5832 5833 5835 5836 5837 5838 5838 5838 5838 5838 5838 5838 5838 5838 5838 5837 5836 5835 5834 5832 5831 5830 5828 5826 5824 5821
5769 5774 5779 5783 5786 5790 5794 5797 5800 5803 5806 5810 5813 5815 5817 5820 5822 5824 5826 5828 5829 5831 5832 5833 5833 5834 5833 5833 5833 5833 5833 5833 5833 5832 5831 5830 5829 5827 5826 5824 5822 5820 5818 5815
5764 5768 5773 5777 5781 5785 5788 5792 5795 5798 5800 5803 5806 5809 5812 5814 5817 5819 5821 5822 5824 5825 5827 5828 5828 5828 5829 5829 5829 5828 5828 5828 5828 5827 5825 5824 5823 5821 5820 5818 5816 5814 5812 5809
5758 5763 5767 5771 5775 5779 5783 5786 5789 5792 5795 5797 5800 5803 5806 5809 5811 5813 5815 5817 5818 5820 5821 5822 5823 5823 5824 5824 5824 5824 5823 5823 5822 5821 5820 5819 5817 5815 5814 5812 5810 5808 5806 5803
5753 5757 5762 5766 5770 5774 5777 5781 5784 5786 5789 5792 5795 5798 5800 5803 5805 5807 5809 5811 5813 5814 5815 5817 5817 5818 5818 5818 5818 5818 5818 5817 5816 5815 5814 5813 5811 5810 5808 5806 5804 5802 5800 5797
5748 5753 5757 5761 5765 5769 5772 5775 5778 5781 5784 5787 5789 5792 5795 5797 5800 5802 5804 5805 5807 5808 5810 5811 5812 5813 5813 5813 5813 5813 5813 5812 5811 5810 5808 5807 5806 5804 5802 5800 5798 5796 5793 5791
5743 5748 5751 5755 5759 5763 5767 5770 5773 5776 5778 5781 5784 5787 5789 5792 5794 5796 5798 5800 5802 5803 5805 5806 5806 5807 5808 5808 5808 5807 5807 5806 5805 5804 5803 5801 5800 5798 5796 5794 5792 5790 5787 5785
5738 5742 5746 5750 5754 5757 5761 5764 5767 5770 5773 5776 5779 5781 5784 5786 5788 5791 5792 5795 5796 5798 5799 5800 5801 5801 5802 5802 5802 5801 5801 5800 5799 5798 5797 5796 5794 5792 5790 5788 5786 5784 5781 5779
5733 5737 5741 5745 5748 5752 5755 5759 5762 5765 5768 5771 5773 5776 5778 5781 5783 5786 5788 5789 5791 5792 5793 5794 5795 5796 5796 5796 5796 5795 5795 5794 5793 5792 5791 5790 5788 5786 5784 5782 5780 5778 5775 5772
5728 5732 5736 5739 5743 5747 5750 5753 5756 5760 5763 5766 5768 5771 5773 5776 5778 5780 5782 5784 5785 5787 5788 5789 5790 5791 5791 5791 5791 5790 5789 5788 5787 5786 5785 5784 5782 5780 5778 5776 5774 5771 5769 5766
5723 5727 5731 5734 5738 5741 5745 5748 5751 5755 5758 5761 5763 5766 5768 5771 5773 5775 5777 5779 5780 5781 5783 5784 5785 5785 5785 5785 5785 5784 5783 5782 5781 5780 5779 5777 5776 5774 5772 5769 5767 5764 5762 5759
5718 5722 5726 5729 5733 5737 5740 5743 5746 5749 5753 5755 5758 5761 5763 5765 5767 5769 5771 5773 5775 5776 5777 5778 5779 5779 5779 5779 5779 5778 5777 5776 5775 5774 5773 5771 5769 5767 5765 5763 5760 5758 5756 5753
5713 5717 5721 5725 5729 5732 5735 5738 5742 5745 5748 5750 5753 5756 5758 5760 5762 5764 5766 5768 5769 5770 5771 5772 5773 5773 5773 5773 5772 5772 5771 5770 5768 5767 5766 5764 5763 5760 5758 5756 5754 5751 5749 5746
5709 5712 5716 5720 5724 5728 5731 5734 5737 5740 5743 5746 5749 5751 5753 5755 5757 5759 5761 5762 5764 5765 5766 5766 5767 5767 5767 5767 5766 5765 5764 5763 5762 5760 5759 5757 5756 5754 5751 5749 5747 5744 5742 5739
5704 5708 5712 5716 5719 5723 5726 5730 5733 5736 5739 5742 5744 5747 5749 5751 5752 5754 5756 5757 5758 5759 5760 5761 5761 5761 5761 5760 5759 5758 5757 5756 5755 5754 5752 5751 5749 5747 5744 5742 5740 5737 5734 5731
Wind_Speed
29 23 21 23 26 27 28 26 23 20 21 22 23 23 22 21 21 20 20 19 20 20 19 19 19 18 19 19 18 18 18 17 17 17 16 16 16 15 15 15 15 16 16 16
31 27 23 22 24 24 25 25 24 22 23 24 24 25 24 24 23 22 21 20 19 20 19 18 18 18 19 19 19 18 18 18 17 17 16 16 16 16 16 16 16 16 17 17
30 29 27 26 25 25 25 25 25 26 25 26 26 27 27 25 23 22 22 20 19 19 18 18 18 18 18 18 19 18 18 18 17 17 17 16 16 16 16 16 16 17 17 17
30 29 29 27 25 26 25 24 26 28 27 27 26 27 27 25 23 22 21 20 20 19 18 18 18 17 18 17 16 17 17 17 17 17 16 16 16 16 16 17 17 17 17 18
31 28 27 25 25 25 26 28 29 28 28 26 25 26 25 23 22 20 19 20 20 20 19 18 17 17 18 17 16 16 16 17 17 16 15 15 16 16 17 17 18 18 18 18
32 29 26 25 25 25 27 29 29 28 30 27 26 25 24 22 21 20 19 20 20 19 19 19 18 18 18 18 17 17 16 17 16 16 16 16 17 17 18 18 19 18 19 19
32 30 27 26 27 27 28 29 28 28 28 28 28 26 24 22 21 20 19 19 19 19 19 19 18 18 18 18 17 17 17 17 17 17 17 17 17 18 18 18 19 19 19 20
33 30 28 28 28 29 29 28 27 27 27 27 27 25 24 23 22 21 20 20 19 19 19 19 19 19 19 19 19 18 18 18 17 17 18 18 18 19 19 19 19 19 19 21
34 33 32 30 30 29 28 27 27 27 27 26 25 25 24 24 23 22 22 21 20 20 20 20 20 20 20 20 20 19 19 18 18 18 19 19 19 19 19 19 19 20 21 22
33 34 33 31 30 29 28 27 28 28 27 25 25 25 25 24 24 23 23 22 22 21 21 20 21 21 21 21 20 20 20 20 19 19 19 19 19 19 20 20 20 21 22 22
33 35 34 33 31 29 27 28 28 29 27 26 26 26 26 25 24 24 24 23 23 23 22 21 22 22 22 22 22 21 21 21 21 20 20 20 20 20 21 21 21 22 23 23
34 33 33 33 31 29 28 28 29 28 27 27 27 26 26 26 25 25 24 24 23 23 22 22 22 22 23 23 22 22 21 21 20 20 20 20 20 21 21 22 22 23 24 25
33 32 31 30 29 28 28 28 29 29 29 28 28 27 27 26 25 25 24 24 24 23 23 23 22 22 22 21 20 20 20 20 20 20 20 21 22 22 23 23 23 24 25 26
32 32 31 30 29 28 28 28 29 30 29 28 28 28 27 26 26 26 25 24 24 23 22 22 22 22 20 19 19 19 20 20 20 21 21 22 22 23 23 24 24 25 26 27
30 30 30 30 30 30 29 29 28 28 28 28 28 28 27 27 26 26 26 25 24 23 22 22 22 22 20 20 20 20 20 20 21 21 22 22 23 23 24 25 25 25 26 26
30 30 30 31 30 30 30 29 28 28 28 28 28 28 28 27 26 26 25 25 24 23 23 22 22 21 21 21 20 19 20 21 21 22 22 23 23 24 24 25 25 25 25 26
30 30 30 31 30 30 29 28 28 28 27 27 27 27 27 26 26 26 26 25 24 23 23 23 22 21 21 21 20 20 21 22 22 22 23 23 24 23 23 24 24 25 26 26
31 30 30 30 30 29 29 28 28 28 27 27 27 27 26 26 26 25 25 24 24 24 22 21 21 22 22 21 20 20 21 21 22 22 23 23 23 23 23 23 24 24 24 24
32 32 31 31 31 30 29 28 27 27 27 27 27 26 26 25 24 24 23 23 22 21 21 21 22 22 21 21 21 21 22 22 21 22 22 22 23 23 24 24 24 24 25 25
32 31 31 30 31 30 29 29 28 27 26 26 26 26 25 25 24 23 22 21 21 21 20 20 20 20 20 21 21 21 21 21 21 21 21 22 22 22 23 23 24 25 25 26
30 30 29 29 29 29 28 28 28 27 26 26 26 25 24 24 23 22 21 21 21 21 20 20 19 20 20 21 21 20 21 21 21 21 21 22 22 23 23 24 25 25 26 26
28 28 27 27 27 27 27 27 27 26 25 24 24 24 23 23 23 22 22 21 21 21 21 21 21 21 21 21 21 20 21 21 21 21 21 22 22 23 24 24 24 25 25 25
27 27 27 27 27 27 27 27 26 26 25 24 24 23 23 23 22 21 21 21 21 21 21 21 21 20 20 20 21 20 20 21 21 21 22 22 22 23 23 23 24 25 25 26
27 27 27 26 26 26 26 25 25 25 25 24 24 24 23 23 22 22 22 22 22 21 21 20 20 20 20 20 20 20 21 22 22 22 22 22 22 23 23 24 24 25 26 26
27 27 27 26 25 25 25 24 24 24 24 23 22 22 23 22 22 21 21 21 21 20 20 20 20 20 20 20 20 21 21 22 22 22 22 23 23 24 24 25 25 26 26 26
25 26 27 26 26 25 24 24 24 24 24 23 22 22 22 22 22 22 21 21 20 20 20 20 20 20 20 20 20 21 22 22 22 22 23 23 24 25 25 25 26 26 27 27
24 24 24 25 25 25 24 24 23 23 23 22 22 21 21 21 21 20 20 20 19 19 19 19 20 21 21 21 21 22 22 22 22 23 23 24 25 25 25 26 27 28 28 29
Wind_Direction
203 212 225 229 224 221 222 220 221 225 235 245 252 257 258 259 261 259 261 260 261 264 267 272 275 278 280 280 282 284 285 288 291 291 292 292 293 293 291 294 296 296 296 294
204 207 213 221 224 222 221 220 220 223 227 235 244 251 255 258 259 259 260 260 260 262 266 270 273 276 279 278 279 281 281 283 286 289 290 290 291 293 290 292 296 295 296 297
208 210 215 220 220 221 221 220 220 225 228 235 243 251 255 258 261 259 258 259 259 262 266 269 272 274 278 279 279 279 280 280 283 286 287 286 289 293 294 295 297 297 297 298
209 212 215 222 223 222 221 219 222 225 229 236 241 247 253 256 258 258 257 255 256 260 264 268 271 274 276 278 277 279 280 281 283 285 287 289 293 294 298 301 301 299 299 299
210 214 219 221 222 220 220 221 224 226 228 232 237 246 251 253 254 255 256 255 256 259 264 267 269 272 274 277 280 283 285 286 284 284 288 293 296 296 298 300 301 302 301 299
208 210 217 218 219 218 221 226 226 226 227 229 237 245 250 250 249 250 254 255 256 259 261 264 266 270 273 275 281 287 288 291 290 288 291 293 296 296 297 299 301 299 298 297
208 211 214 216 219 221 223 228 229 231 230 232 236 241 247 250 250 249 252 255 257 259 261 263 266 270 274 277 284 288 289 291 291 292 291 294 297 297 297 299 300 299 297 298
208 211 216 218 217 221 224 226 228 229 232 235 238 241 244 249 251 251 252 255 255 257 261 263 266 271 276 281 287 288 289 291 290 289 289 291 296 298 299 300 301 302 300 300
212 212 216 221 221 225 225 225 226 228 231 235 238 241 245 248 250 251 252 255 256 258 260 264 266 271 276 280 285 286 287 289 290 290 289 291 295 299 300 300 300 299 301 302
214 214 218 223 226 226 226 226 228 232 233 236 238 241 244 246 249 251 252 254 255 257 261 264 268 272 274 278 282 283 285 287 287 288 290 292 295 298 299 299 300 300 301 303
217 219 222 225 228 228 225 226 229 232 233 235 237 242 245 247 248 250 253 254 255 258 261 264 268 271 274 277 279 281 282 283 284 287 289 291 294 296 297 299 301 302 303 304
218 220 224 226 228 229 228 228 229 232 234 235 237 242 245 246 248 251 252 253 255 257 260 264 267 272 275 276 277 278 279 281 285 288 290 292 293 295 297 298 299 301 302 304
222 223 225 226 226 226 227 229 231 234 235 236 239 242 245 246 247 250 251 252 254 257 260 264 267 271 274 275 276 277 279 283 286 288 290 293 295 296 297 297 298 300 302 304
223 223 225 227 228 226 227 229 232 235 236 237 240 242 243 245 246 247 249 250 254 257 260 264 266 269 273 274 275 279 280 282 285 287 290 292 295 297 298 298 299 301 303 304
222 223 224 226 228 229 229 231 234 236 237 238 240 241 243 245 246 248 249 251 255 257 260 262 266 269 269 272 275 278 279 281 285 289 291 294 296 298 299 299 301 302 304 305
221 220 222 225 227 228 230 232 234 236 239 239 239 240 241 244 247 248 250 252 253 256 259 262 266 267 269 272 275 277 280 283 288 291 294 295 298 299 300 301 302 303 304 305
220 220 222 224 226 228 230 233 235 236 239 240 240 241 242 245 247 250 251 250 252 256 258 261 262 265 268 270 273 277 281 285 289 292 294 297 298 298 300 301 302 303 304 305
221 223 224 226 227 228 231 233 234 236 237 239 241 242 243 245 247 248 248 250 251 255 256 257 259 263 267 270 274 280 283 286 289 292 294 296 298 300 302 303 303 304 305 307
223 225 227 228 229 230 231 232 234 236 237 238 241 242 243 242 243 244 247 250 252 253 255 257 259 261 265 270 274 280 284 287 288 291 294 296 298 299 301 302 304 305 306 308
223 225 227 228 229 230 231 233 236 237 237 237 238 239 240 239 241 244 247 248 250 253 255 258 261 263 266 270 276 279 282 285 288 289 292 293 296 298 300 302 304 305 306 306
224 226 229 230 230 231 231 232 233 235 236 237 238 238 238 237 238 243 247 250 252 253 255 257 260 263 268 273 277 278 280 283 285 288 291 293 296 298 300 302 303 304 306 306
225 227 228 228 228 229 229 230 232 232 233 235 236 237 237 237 239 243 247 249 250 253 256 259 261 265 268 273 277 279 282 284 286 289 291 293 296 298 300 301 303 304 306 307
225 226 227 227 227 227 228 230 230 230 231 234 235 236 239 238 240 244 246 246 249 251 254 257 262 265 268 273 276 279 282 286 288 289 292 295 297 300 302 303 304 305 306 306
225 225 224 224 225 226 226 227 228 229 231 234 235 236 238 239 241 244 246 247 248 251 254 257 262 267 270 274 278 280 283 285 286 288 291 294 296 299 301 303 304 305 306 307
222 222 222 222 224 226 226 226 226 227 229 232 234 237 239 240 241 243 245 247 250 253 257 263 268 270 273 276 279 281 284 286 287 289 292 294 296 297 299 301 303 304 305 306
218 220 221 222 224 225 226 227 227 228 230 232 235 237 239 240 242 244 247 250 253 256 261 265 269 272 274 277 281 284 286 287 288 289 291 293 294 296 298 300 301 302 304 305
215 218 220 222 223 224 225 225 225 227 229 231 235 238 240 242 244 245 247 249 252 257 262 265 268 271 275 277 281 285 287 288 287 288 290 292 294 296 297 298 300 301 302 303